Weather History for Alexander City, AL

Change the Weather History Date:

Friday, April 12, 2013

  Actual Average (KAUO) Record (KAUO)
Temperature  
Mean Temperature 62 °F -  
Max Temperature 72 °F - 84 °F (1971)
Min Temperature 53 °F - 31 °F (1973)
Degree Days  
Heating Degree Days 2    
Month to date heating degree days  
Since 1 July heating degree days  
Cooling Degree Days 0    
Month to date cooling degree days  
Year to date cooling degree days  
Growing Degree Days 12 (Base 50)    
Moisture  
Dew Point 46 °F    
Average Humidity 61    
Maximum Humidity 88    
Minimum Humidity 27    
Precipitation  
Precipitation 0.03 in - 2.38 in (1962)
Month to date precipitation  
Year to date precipitation  
Sea Level Pressure  
Sea Level Pressure 29.88 in    
Wind  
Wind Speed 9 mph (NW)    
Max Wind Speed 15 mph    
Max Gust Speed 26 mph    
Visibility 10 miles    
Events Rain    
T = Trace of Precipitation, MM = Missing Value Source: NWS Daily Summary

Daily Weather History Graph

Daily Weather History Graph

Search for Another Location

Airport:

Trip Planner

Search our weather history database for the weather conditions in past years. The results will help you decide how hot, cold, wet, or windy it might be!

Date:

Astronomy

Apr. 12, 2013 Rise Set
Actual Time 6:17 AM CDT 7:12 PM CDT
Civil Twilight 5:52 AM CDT 7:37 PM CDT
Nautical Twilight 5:22 AM CDT 8:07 PM CDT
Astronomical Twilight 4:51 AM CDT 8:38 PM CDT
Moon 7:33 AM CDT (4/12) 9:34 PM CDT (4/12)
Length of Visible Light 13h 45m
Length of Day
12h 54m
Waxing Crescent, 5% of the Moon is Illuminated
Apr 12
Waxing Crescent
Apr 18
First Quarter
Apr 25
Full
May 2
Last Quarter
May 9
New

Hourly Weather History & Observations

Time (CDT) Temp. Dew Point Humidity Pressure Visibility Wind Dir Wind Speed Gust Speed Precip Events Conditions
12:15 AM 69.8 °F 66.2 °F 88% 29.72 in 5.0 mi West 15.0 mph 20.7 mph N/A   Heavy Drizzle
12:35 AM 68.7 °F 64.9 °F 88% 29.73 in 7.0 mi West 6.9 mph - 0.03 in Rain Rain
12:55 AM 64.8 °F 61.0 °F 88% 29.74 in 10.0 mi West 8.1 mph - 0.03 in   Overcast
1:15 AM 63.9 °F 60.1 °F 87% 29.76 in 10.0 mi West 8.1 mph - N/A   Overcast
1:35 AM 62.8 °F 59.0 °F 87% 29.76 in 10.0 mi West 5.8 mph - N/A   Overcast
1:55 AM 62.4 °F 58.6 °F 87% 29.75 in 10.0 mi West 9.2 mph - N/A   Overcast
2:15 AM 62.2 °F 58.5 °F 87% 29.76 in 10.0 mi West 8.1 mph - N/A   Overcast
2:35 AM 62.2 °F 58.5 °F 87% 29.76 in 10.0 mi West 9.2 mph - N/A   Overcast
2:55 AM 61.2 °F 56.8 °F 86% 29.76 in 10.0 mi West 8.1 mph 19.6 mph N/A   Overcast
3:15 AM 61.0 °F 57.2 °F 87% 29.77 in 10.0 mi West 8.1 mph - N/A   Overcast
3:35 AM 60.6 °F 57.0 °F 88% 29.76 in 5.0 mi NW 10.4 mph 16.1 mph N/A   Overcast
3:55 AM 59.9 °F 55.9 °F 87% 29.77 in 10.0 mi West 8.1 mph 17.3 mph N/A   Overcast
4:15 AM 59.9 °F 55.9 °F 87% 29.78 in 10.0 mi WNW 6.9 mph - N/A   Overcast
4:35 AM 59.9 °F 55.9 °F 87% 29.79 in 7.0 mi WNW 6.9 mph - N/A   Overcast
4:55 AM 57.9 °F 54.1 °F 87% 29.80 in 10.0 mi West 9.2 mph 17.3 mph N/A   Overcast
5:15 AM 57.2 °F 53.6 °F 88% 29.81 in 10.0 mi WNW 10.4 mph - N/A   Overcast
5:35 AM 57.2 °F 53.6 °F 88% 29.82 in 10.0 mi West 9.2 mph - N/A   Overcast
5:55 AM 57.2 °F 52.3 °F 84% 29.83 in 10.0 mi WNW 9.2 mph - N/A   Mostly Cloudy
6:15 AM 55.4 °F 49.3 °F 80% 29.84 in 10.0 mi WNW 5.8 mph - N/A   Scattered Clouds
6:35 AM 54.7 °F 49.3 °F 82% 29.85 in 10.0 mi WNW 5.8 mph - N/A   Scattered Clouds
6:55 AM 54.7 °F 49.6 °F 83% 29.86 in 10.0 mi WNW 6.9 mph - N/A   Mostly Cloudy
7:15 AM 54.7 °F 49.3 °F 82% 29.86 in 10.0 mi NW 5.8 mph - N/A   Overcast
7:35 AM 55.9 °F 50.5 °F 82% 29.87 in 10.0 mi NW 8.1 mph - N/A   Overcast
7:55 AM 56.1 °F 47.5 °F 73% 29.89 in 10.0 mi NNW 10.4 mph - N/A   Scattered Clouds
8:15 AM 55.6 °F 46.6 °F 72% 29.89 in 10.0 mi NNW 12.7 mph 16.1 mph N/A   Clear
8:35 AM 57.2 °F 47.3 °F 69% 29.89 in 10.0 mi NNW 8.1 mph - N/A   Clear
8:55 AM 57.2 °F 44.4 °F 62% 29.91 in 10.0 mi NNW 11.5 mph - N/A   Clear
9:15 AM 57.2 °F 42.3 °F 57% 29.91 in 10.0 mi North 11.5 mph 19.6 mph N/A   Clear
9:55 AM 59.9 °F 43.2 °F 54% 29.92 in 10.0 mi North 10.4 mph 17.3 mph N/A   Clear
10:15 AM 59.9 °F 42.1 °F 52% 29.93 in 10.0 mi NNW 9.2 mph 12.7 mph N/A   Clear
10:35 AM 60.4 °F 41.9 °F 50% 29.93 in 10.0 mi NNW 12.7 mph 18.4 mph N/A   Clear
10:55 AM 61.0 °F 41.9 °F 49% 29.92 in 10.0 mi NNW 10.4 mph 17.3 mph N/A   Clear
11:15 AM 62.2 °F 42.6 °F 49% 29.93 in 10.0 mi NNW 11.5 mph 16.1 mph N/A   Clear
11:35 AM 62.4 °F 40.6 °F 45% 29.93 in 10.0 mi NNW 11.5 mph - N/A   Clear
11:55 AM 63.3 °F 40.6 °F 43% 29.93 in 10.0 mi WNW 12.7 mph 17.3 mph N/A   Clear
12:15 PM 64.8 °F 40.8 °F 42% 29.93 in 10.0 mi WNW 10.4 mph 18.4 mph N/A   Clear
12:35 PM 66.0 °F 41.4 °F 41% 29.92 in 10.0 mi NNW 11.5 mph - N/A   Clear
12:55 PM 67.3 °F 41.9 °F 40% 29.92 in 10.0 mi North 11.5 mph - N/A   Clear
1:15 PM 69.8 °F 41.5 °F 36% 29.92 in 10.0 mi NNW 8.1 mph - N/A   Clear
1:35 PM 69.8 °F 41.9 °F 36% 29.92 in 10.0 mi NW 4.6 mph - N/A   Clear
1:55 PM 69.8 °F 40.5 °F 34% 29.92 in 10.0 mi NW 9.2 mph 17.3 mph N/A   Clear
2:15 PM 69.8 °F 39.9 °F 34% 29.91 in 10.0 mi NNW 10.4 mph 17.3 mph N/A   Clear
2:35 PM 69.8 °F 39.2 °F 33% 29.91 in 10.0 mi NNW 6.9 mph 11.5 mph N/A   Clear
2:55 PM 70.0 °F 36.9 °F 30% 29.91 in 10.0 mi WNW 9.2 mph 17.3 mph N/A   Clear
3:15 PM 70.7 °F 37.8 °F 30% 29.89 in 10.0 mi WNW 10.4 mph 16.1 mph N/A   Clear
3:35 PM 72.0 °F 39.4 °F 31% 29.89 in 10.0 mi NW 10.4 mph - N/A   Clear
3:55 PM 72.1 °F 37.8 °F 29% 29.89 in 10.0 mi WNW 8.1 mph 18.4 mph N/A   Clear
4:15 PM 72.5 °F 37.6 °F 28% 29.89 in 10.0 mi NW 10.4 mph - N/A   Clear
4:35 PM 72.5 °F 36.5 °F 27% 29.89 in 10.0 mi West 8.1 mph - N/A   Clear
4:55 PM 72.3 °F 36.5 °F 27% 29.89 in 10.0 mi NW 11.5 mph 17.3 mph N/A   Clear
5:15 PM 72.5 °F 36.5 °F 27% 29.90 in 10.0 mi NW 12.7 mph 26.5 mph N/A   Clear
5:35 PM 72.3 °F 36.1 °F 27% 29.90 in 10.0 mi WNW 10.4 mph 19.6 mph N/A   Clear
5:55 PM 70.2 °F 35.6 °F 28% 29.90 in 10.0 mi WNW 12.7 mph 18.4 mph N/A   Clear
6:15 PM 69.8 °F 36.1 °F 29% 29.90 in 10.0 mi NW 11.5 mph 16.1 mph N/A   Clear
6:35 PM 69.8 °F 37.9 °F 31% 29.91 in 10.0 mi WNW 4.6 mph - N/A   Clear
6:55 PM 69.8 °F 39.6 °F 33% 29.92 in 10.0 mi WNW 3.5 mph - N/A   Clear
7:15 PM 67.3 °F 39.9 °F 37% 29.92 in 10.0 mi Calm Calm - N/A   Clear
7:35 PM 63.9 °F 41.5 °F 44% 29.93 in 10.0 mi Calm Calm - N/A   Clear
7:55 PM 59.9 °F 43.5 °F 55% 29.93 in 10.0 mi Calm Calm - N/A   Clear
8:15 PM 57.2 °F 45.1 °F 64% 29.95 in 10.0 mi Calm Calm - N/A   Clear
8:35 PM 57.2 °F 47.7 °F 70% 29.96 in 10.0 mi Calm Calm - N/A   Clear
8:55 PM 57.2 °F 46.9 °F 69% 29.96 in 10.0 mi Calm Calm - N/A   Clear
9:15 PM 55.9 °F 47.3 °F 73% 29.96 in 10.0 mi Calm Calm - N/A   Clear
9:35 PM 55.4 °F 47.5 °F 75% 29.96 in 10.0 mi Calm Calm - N/A   Clear
9:55 PM 54.7 °F 47.7 °F 77% 29.97 in 10.0 mi Calm Calm - N/A   Clear
10:15 PM 54.7 °F 46.9 °F 75% 29.96 in 10.0 mi NW 6.9 mph - N/A   Clear
10:35 PM 55.4 °F 45.9 °F 70% 29.97 in 10.0 mi Calm Calm - N/A   Clear
10:55 PM 53.6 °F 47.7 °F 80% 29.97 in 10.0 mi NW 4.6 mph - N/A   Clear
11:15 PM 55.6 °F 44.2 °F 66% 29.97 in 10.0 mi WNW 3.5 mph - N/A   Clear
11:35 PM 54.7 °F 43.9 °F 67% 29.98 in 10.0 mi WNW 3.5 mph - N/A   Clear
11:55 PM 54.7 °F 44.1 °F 67% 29.98 in 10.0 mi WNW 3.5 mph - N/A   Clear